Flag for U.S.A. Weather past 2 weeks in Fort Lauderdale, Florida, U.S.A.

Now
71 °F

Overcast.


Feels Like: 68 °F
Forecast: 66 / 77 °F
Wind: 5 mph from North

Location: Fort Lauderdale / Hollywood International Airport

Current Time: Feb 27, 2015 at 1:30:14 AM

Latest Report: Feb 27, 2015 at 12:53 AM


Visibility: 9 mi

Pressure: 29.99 "Hg

Humidity: 90%

Dew point: 68 °F

Location of Fort LauderdaleLocation

Historic Weather in Fort Lauderdale — Graph

°F

Fort Lauderdale temperature yesterday

Maximum temperature yesterday: 84 °F (at 1:53 PM)
Minimum temperature yesterday: 71 °F (at 11:53 PM)
Average temperature yesterday: 77 °F

Past Weeks' High & Low Weather Summary

 TemperatureHumidityPressure
High84 °F (Feb 26, 1:53 PM)100% (Feb 24, 5:53 AM)30.34 "Hg (Feb 24, 5:53 AM)
Low40 °F (Feb 20, 4:53 AM)23% (Feb 19, 2:53 PM)29.80 "Hg (Feb 26, 2:53 AM)
Average66 °F68%30.09 "Hg
* Reported Feb 11 11:53 PM — Feb 26 11:53 PM, Fort Lauderdale, Weather by CustomWeather, © 2015

Note: Actual official high and low records may vary slightly from our data, if they occured in-between our weather recording intervals... More about our weather records

Advertising

Fort Lauderdale weather history for previous 24 hours

 ConditionsComfort  
Time TempWeatherWind HumidityBarometerVisibility
11:53 PM
Thu, Feb 26
71 °FMostly cloudy.3 mph90%29.99 "Hg10 mi
10:53 PM72 °FOvercast.6 mph87%29.99 "Hg10 mi
9:53 PM76 °FPassing clouds.3 mph82%29.98 "Hg10 mi
8:53 PM76 °FPartly cloudy.8 mph82%29.96 "Hg10 mi
7:53 PM77 °FOvercast.8 mph79%29.94 "Hg10 mi
6:53 PM78 °FOvercast.8 mph79%29.92 "Hg10 mi
5:53 PM79 °FPartly sunny.15 mph77%29.90 "Hg10 mi
4:53 PM80 °FMostly cloudy.14 mph74%29.88 "Hg10 mi
3:53 PM80 °FCloudy.20 mph71%29.87 "Hg10 mi
2:53 PM83 °FCloudy.18 mph59%29.85 "Hg10 mi
1:53 PM84 °FBroken clouds.16 mph59%29.85 "Hg10 mi
12:53 PM83 °FMostly cloudy.20 mph57%29.86 "Hg10 mi
11:53 AM83 °FMostly cloudy.18 mph59%29.87 "Hg10 mi
10:53 AM80 °FMostly cloudy.13 mph67%29.88 "Hg10 mi
9:53 AM78 °FMostly cloudy.14 mph74%29.88 "Hg10 mi
8:53 AM76 °FPartly sunny.13 mph82%29.88 "Hg10 mi
7:53 AM74 °FBroken clouds.13 mph88%29.87 "Hg10 mi
6:53 AM73 °FBroken clouds.12 mph90%29.84 "Hg10 mi
5:53 AM73 °FMostly cloudy.13 mph90%29.83 "Hg9 mi
4:53 AM74 °FPassing clouds.15 mph88%29.83 "Hg10 mi
3:53 AM75 °FMostly cloudy.12 mph85%29.82 "Hg10 mi
2:53 AM75 °FPassing clouds.17 mph88%29.80 "Hg10 mi
1:53 AM75 °FPassing clouds.13 mph88%29.82 "Hg10 mi
Weather by CustomWeather, © 2015

See weather overviewHow to use our weather pages